Location: Newark
(44.1667°N, 8.2500°E)
Time: 10:37:08
(UTC+00:00)

S-56A Canister/Altair - Pass Details

Date: 14 December 2019
Orbit: 634 x 2498 km, 38.9° (Epoch: 22 January)

Event Time Altitude Azimuth Distance (km) Brightness Sun altitude
Rises 05:41:13 0° 181° (S) 4,955 11.9 -12.6°
Reaches altitude 10° 05:45:50 10° 163° (SSE) 4,303 11.9 -11.8°
Maximum altitude 05:52:49 18° 127° (SE) 4,118 12.4 -10.6°
Drops below altitude 10° 06:00:46 10° 93° (E) 5,036 13.0 -9.3°
Sets 06:06:50 0° 77° (ENE) 6,166 13.1 -8.3°
